Weather History for Cody, WY

Change the Weather History Date:

Tuesday, March 6, 2012

  Actual Average Record
Temperature  
Mean Temperature 35 °F -  
Max Temperature 51 °F 45 °F 66 °F (1936)
Min Temperature 19 °F 23 °F -23 °F (1920)
Degree Days  
Heating Degree Days 30    
Moisture  
Dew Point 23 °F    
Average Humidity 66    
Maximum Humidity 100    
Minimum Humidity 26    
Precipitation  
Precipitation 0.00 in - - ()
Sea Level Pressure  
Sea Level Pressure 29.56 in    
Wind  
Wind Speed 19 mph (WSW)    
Max Wind Speed 25 mph    
Max Gust Speed 39 mph    
Visibility 9 miles    
Events      
Averages and records for this station are not official NWS values.
T = Trace of Precipitation, MM = Missing Value Source: NWS Daily Summary

Daily Weather History Graph

Daily Weather History Graph

Search for Another Location

Airport:

Trip Planner

Search our weather history database for the weather conditions in past years. The results will help you decide how hot, cold, wet, or windy it might be!

Date:

Astronomy

Mar. 06, 2012 Rise Set
Actual Time 6:43 AM MST 6:11 PM MST
Civil Twilight 6:14 AM MST 6:40 PM MST
Nautical Twilight 5:41 AM MST 7:14 PM MST
Astronomical Twilight 5:07 AM MST 7:48 PM MST
Moon 4:39 PM MST (3/6) 5:24 AM MST (3/6)
Length of Visible Light 12h 25m
Length of Day
11h 27m
Waxing Gibbous, 96% of the Moon is Illuminated
Mar 6
Waxing Gibbous
Mar 8
Full
Mar 14
Last Quarter
Mar 22
New
Mar 30
First Quarter

Hourly Weather History & Observations

Time (MST) Temp. Windchill Dew Point Humidity Pressure Visibility Wind Dir Wind Speed Gust Speed Precip Events Conditions
12:15 AM 51.8 °F - 17.6 °F 26% 29.49 in 10.0 mi SSW 25.3 mph 36.8 mph N/A   Clear
12:35 AM 51.8 °F - 17.6 °F 26% 29.48 in 10.0 mi SSW 21.9 mph 33.4 mph N/A   Clear
12:55 AM 50.0 °F - 17.6 °F 28% 29.49 in 10.0 mi SSW 18.4 mph 39.1 mph N/A   Clear
1:15 AM 50.0 °F - 19.4 °F 30% 29.49 in 10.0 mi SW 17.3 mph 24.2 mph N/A   Clear
1:35 AM 48.2 °F - 19.4 °F 32% 29.49 in 10.0 mi SSW 15.0 mph 28.8 mph N/A   Clear
1:55 AM 48.2 °F - 21.2 °F 34% 29.48 in 10.0 mi SSW 23.0 mph 29.9 mph N/A   Clear
2:15 AM 48.2 °F - 21.2 °F 34% 29.47 in 10.0 mi SSW 24.2 mph 33.4 mph N/A   Clear
2:35 AM 48.2 °F - 21.2 °F 34% 29.47 in 10.0 mi SSW 19.6 mph 32.2 mph N/A   Clear
2:55 AM 46.4 °F 39.0 °F 23.0 °F 40% 29.47 in 10.0 mi South 19.6 mph 24.2 mph N/A   Clear
3:15 AM 44.6 °F 36.6 °F 24.8 °F 46% 29.47 in 10.0 mi South 19.6 mph 25.3 mph N/A   Clear
3:35 AM 44.6 °F 36.6 °F 26.6 °F 49% 29.47 in 10.0 mi South 19.6 mph 25.3 mph N/A   Clear
3:55 AM 44.6 °F 37.4 °F 26.6 °F 49% 29.46 in 10.0 mi South 16.1 mph 24.2 mph N/A   Clear
4:15 AM 44.6 °F 37.4 °F 26.6 °F 49% 29.46 in 10.0 mi South 16.1 mph 21.9 mph N/A   Clear
4:35 AM 44.6 °F 37.2 °F 26.6 °F 49% 29.46 in 10.0 mi South 17.3 mph 21.9 mph N/A   Clear
4:55 AM 44.6 °F 37.2 °F 26.6 °F 49% 29.46 in 10.0 mi South 17.3 mph 21.9 mph N/A   Clear
5:55 AM 39.2 °F 29.6 °F 30.2 °F 70% 29.44 in 10.0 mi South 19.6 mph - N/A   Clear
6:15 AM 39.2 °F 29.6 °F 32.0 °F 75% 29.43 in 10.0 mi South 19.6 mph - N/A   Clear
6:35 AM 39.2 °F 30.5 °F 30.2 °F 70% 29.43 in 10.0 mi South 16.1 mph - N/A   Clear
6:55 AM 41.0 °F 33.9 °F 30.2 °F 65% 29.43 in 10.0 mi South 12.7 mph - N/A   Clear
7:15 AM 42.8 °F 36.2 °F 30.2 °F 61% 29.43 in 10.0 mi South 12.7 mph 19.6 mph N/A   Clear
7:55 AM 42.8 °F 36.2 °F 28.4 °F 57% 29.44 in 10.0 mi SSW 12.7 mph 16.1 mph N/A   Clear
8:15 AM 42.8 °F 35.4 °F 28.4 °F 57% 29.43 in 10.0 mi SSW 15.0 mph 23.0 mph N/A   Clear
8:35 AM 44.6 °F 37.4 °F 28.4 °F 53% 29.42 in 10.0 mi SSW 16.1 mph 25.3 mph N/A   Clear
8:55 AM 44.6 °F 36.6 °F 28.4 °F 53% 29.42 in 10.0 mi SSW 19.6 mph 27.6 mph N/A   Clear
9:15 AM 46.4 °F 40.1 °F 26.6 °F 46% 29.41 in 10.0 mi SSW 15.0 mph 24.2 mph N/A   Clear
9:35 AM 48.2 °F - 24.8 °F 40% 29.41 in 10.0 mi SSW 18.4 mph 26.5 mph N/A   Clear
9:55 AM 48.2 °F - 24.8 °F 40% 29.43 in 10.0 mi SSW 11.5 mph 27.6 mph N/A   Clear
10:15 AM 42.8 °F 34.3 °F 26.6 °F 53% 29.46 in 10.0 mi NNW 19.6 mph 24.2 mph N/A   Clear
10:35 AM 39.2 °F 29.0 °F 28.4 °F 65% 29.46 in 10.0 mi North 21.9 mph 31.1 mph N/A   Scattered Clouds
10:55 AM 39.2 °F 29.6 °F 28.4 °F 65% 29.47 in 10.0 mi NNW 19.6 mph 25.3 mph N/A   Partly Cloudy
11:15 AM 39.2 °F 29.3 °F 28.4 °F 65% 29.48 in 10.0 mi NNW 20.7 mph 26.5 mph N/A   Partly Cloudy
11:35 AM 37.4 °F 26.9 °F 28.4 °F 70% 29.49 in 10.0 mi NW 20.7 mph 27.6 mph N/A   Mostly Cloudy
11:55 AM 35.6 °F 24.2 °F 26.6 °F 70% 29.50 in 10.0 mi NW 21.9 mph 27.6 mph N/A   Overcast
12:35 PM 33.8 °F 21.9 °F 26.6 °F 75% 29.52 in 10.0 mi WNW 21.9 mph 27.6 mph N/A   Overcast
12:55 PM 33.8 °F 23.5 °F 26.6 °F 75% 29.52 in 10.0 mi NW 16.1 mph 25.3 mph N/A   Overcast
1:15 PM 32.0 °F 19.8 °F 24.8 °F 75% 29.53 in 10.0 mi WNW 20.7 mph 27.6 mph N/A   Overcast
1:35 PM 32.0 °F 19.8 °F 24.8 °F 75% 29.53 in 10.0 mi WNW 20.7 mph 25.3 mph N/A   Overcast
1:55 PM 30.2 °F 18.9 °F 24.8 °F 80% 29.54 in 10.0 mi NW 16.1 mph 24.2 mph N/A   Overcast
2:15 PM 30.2 °F 17.4 °F 24.8 °F 80% 29.54 in 10.0 mi NW 20.7 mph 25.3 mph N/A   Overcast
2:35 PM 30.2 °F 17.1 °F 24.8 °F 80% 29.54 in 10.0 mi NW 21.9 mph 27.6 mph N/A   Overcast
2:55 PM 30.2 °F 17.1 °F 23.0 °F 75% 29.56 in 10.0 mi NW 21.9 mph 25.3 mph N/A   Overcast
3:15 PM 28.4 °F 15.1 °F 23.0 °F 80% 29.58 in 10.0 mi WNW 20.7 mph 26.5 mph N/A   Overcast
3:35 PM 28.4 °F 17.0 °F 23.0 °F 80% 29.59 in 10.0 mi NW 15.0 mph 24.2 mph N/A   Overcast
3:55 PM 26.6 °F 13.8 °F 21.2 °F 80% 29.61 in 10.0 mi WNW 17.3 mph 21.9 mph N/A   Overcast
4:15 PM 26.6 °F 12.7 °F 21.2 °F 80% 29.61 in 10.0 mi WNW 20.7 mph 26.5 mph N/A   Overcast
4:35 PM 26.6 °F 12.7 °F 21.2 °F 80% 29.63 in 10.0 mi NW 20.7 mph - N/A   Overcast
4:55 PM 24.8 °F 11.1 °F 19.4 °F 80% 29.64 in 10.0 mi WNW 18.4 mph 28.8 mph N/A   Overcast
5:55 PM 23.0 °F 10.6 °F 19.4 °F 86% 29.70 in 2.5 mi WNW 13.8 mph 25.3 mph N/A   Overcast
6:35 PM 21.2 °F 6.4 °F 19.4 °F 93% 29.73 in 1.8 mi WNW 18.4 mph 29.9 mph N/A   Overcast
6:55 PM 21.2 °F 6.4 °F 19.4 °F 93% 29.75 in 2.5 mi WNW 18.4 mph 27.6 mph N/A   Overcast
7:15 PM 21.2 °F 6.4 °F 19.4 °F 93% 29.76 in 1.5 mi WNW 18.4 mph 27.6 mph N/A   Overcast
7:35 PM 21.2 °F 6.4 °F 19.4 °F 93% 29.77 in 1.8 mi WNW 18.4 mph 25.3 mph N/A   Overcast
8:15 PM 19.4 °F 4.1 °F 19.4 °F 100% 29.80 in 1.8 mi WNW 18.4 mph 25.3 mph N/A   Overcast
8:35 PM 19.4 °F 6.0 °F 17.6 °F 93% 29.81 in 4.0 mi West 13.8 mph 23.0 mph N/A   Overcast
8:55 PM 21.2 °F 7.8 °F 17.6 °F 86% 29.81 in 10.0 mi WNW 15.0 mph 19.6 mph N/A   Overcast
9:15 PM 19.4 °F 6.6 °F 17.6 °F 93% 29.82 in 10.0 mi West 12.7 mph 17.3 mph N/A   Overcast
9:35 PM 19.4 °F 10.4 °F 17.6 °F 93% 29.84 in 10.0 mi West 6.9 mph - N/A   Overcast
9:55 PM 19.4 °F 11.5 °F 17.6 °F 93% 29.83 in 10.0 mi West 5.8 mph - N/A   Overcast
10:15 PM 19.4 °F 9.5 °F 15.8 °F 86% 29.84 in 10.0 mi WNW 8.1 mph - N/A   Overcast
10:35 PM 19.4 °F 7.9 °F 15.8 °F 86% 29.85 in 10.0 mi WNW 10.4 mph - N/A   Overcast
10:55 PM 19.4 °F 10.4 °F 15.8 °F 86% 29.86 in 10.0 mi WNW 6.9 mph - N/A   Overcast
11:15 PM 19.4 °F 8.6 °F 14.0 °F 80% 29.86 in 10.0 mi West 9.2 mph - N/A   Overcast
11:55 PM 19.4 °F 11.5 °F 14.0 °F 80% 29.86 in 10.0 mi WNW 5.8 mph - N/A   Overcast